Theta_e
345 344 341 339 343 344 344 344 341 341 339 338 338 339 340 339 338 336 335 333 335 335 335 335 337 338 338 339 341 340 340 339
343 340 337 334 333 333 333 335 339 341 341 341 341 341 340 337 338 337 335 334 333 334 334 335 333 332 332 332 333 333 335 333
341 338 335 334 334 334 335 333 333 334 336 336 336 339 337 334 333 330 329 331 331 330 331 332 331 333 331 332 332 331 331 330
339 337 335 335 335 335 336 337 335 333 337 339 338 336 332 330 329 330 332 330 330 329 330 330 328 331 334 330 329 329 325 327
336 336 335 336 335 336 336 338 339 337 338 338 336 331 330 329 330 332 331 330 328 327 328 328 329 331 331 333 331 327 325 324
334 335 336 335 336 336 336 338 340 336 334 334 332 331 331 332 333 332 331 329 328 330 333 334 335 335 334 333 333 333 332 331
330 331 333 332 332 335 335 336 338 338 336 337 335 336 335 335 333 334 334 332 334 334 333 333 334 333 333 333 332 331 331 330
323 326 328 329 330 331 332 333 333 335 335 333 331 334 333 330 329 329 329 330 330 329 329 331 331 332 332 333 333 334 333 331
317 318 318 318 319 319 318 321 326 329 330 330 329 326 325 323 324 322 322 322 323 321 320 320 320 321 322 324 326 329 331 332
317 317 317 316 316 315 314 313 312 311 311 312 314 314 314 314 313 312 311 311 311 311 311 311 312 313 315 317 318 319 322 326
317 317 316 316 317 316 315 313 312 311 310 310 309 309 310 310 310 309 309 308 308 308 308 308 308 308 309 309 311 313 314 315
317 316 316 315 315 315 315 314 313 311 309 308 308 308 308 308 308 307 307 307 307 307 307 307 307 307 307 307 307 307 308 310
316 316 315 314 314 314 314 313 312 311 308 307 307 307 306 305 305 306 306 305 305 306 306 306 306 307 308 308 309 309 308 307
316 315 314 314 314 313 313 312 311 309 307 307 306 305 305 304 304 304 304 305 305 305 306 307 308 308 309 309 309 309 309 309
315 314 314 313 314 314 313 312 311 308 306 306 304 304 304 303 303 303 304 304 305 304 305 306 308 309 310 310 310 310 311 312
314 314 313 313 314 313 312 311 309 307 306 304 304 303 304 303 304 304 303 304 304 305 305 306 308 308 309 309 310 311 311 311
314 313 313 313 312 312 311 309 307 306 304 303 303 303 303 303 303 304 303 305 305 305 306 306 307 308 306 307 309 310 310 310
313 312 312 311 311 311 309 307 306 304 304 303 304 304 304 303 303 303 304 305 305 305 305 305 306 307 307 305 307 308 308 307
312 312 311 311 310 309 306 306 305 304 304 303 303 303 303 303 305 305 305 305 305 305 305 305 305 306 305 307 306 305 305 304
311 311 311 310 309 307 305 305 304 303 303 304 303 303 304 305 305 304 304 304 305 305 305 305 305 306 305 303 302 300 299 299
Wind_Speed
19 17 17 13 11 11 12 8 5 3 2 2 4 5 9 11 11 14 14 17 21 30 30 24 21 14 10 13 17 11 17 18
19 14 14 13 12 10 5 5 3 4 4 4 6 6 6 10 14 13 15 20 21 25 27 27 22 19 24 16 15 11 15 16
10 8 9 10 8 4 0 1 2 1 3 5 6 8 11 14 14 12 12 11 13 15 20 14 6 8 9 10 11 9 15 18
9 8 6 6 2 3 4 4 4 6 7 7 9 10 8 7 6 6 8 5 6 10 4 3 5 10 10 10 16 10 7 14
6 4 1 2 4 7 5 4 5 5 5 4 5 5 4 3 5 5 5 4 4 4 6 10 14 10 10 12 11 10 11 9
8 7 7 8 7 7 7 7 6 6 4 3 3 2 1 2 1 1 3 5 6 8 10 13 13 13 9 12 15 17 21 23
9 7 7 10 11 10 9 7 7 9 6 3 2 3 2 1 2 3 5 8 9 12 14 16 16 16 16 14 15 16 18 20
13 11 11 10 10 10 12 11 10 5 1 5 3 6 3 2 3 6 8 10 12 13 15 16 18 18 19 19 20 18 18 23
12 14 13 12 13 12 12 10 10 3 1 1 2 4 3 5 8 9 12 14 16 17 18 19 19 20 19 20 22 21 20 22
12 12 11 12 13 14 13 14 12 12 10 7 7 7 9 12 13 15 17 20 21 23 24 25 26 26 24 23 22 22 20 18
11 10 11 11 13 15 16 16 15 15 14 12 10 10 12 13 15 17 18 19 21 23 24 25 25 26 27 27 26 24 25 22
11 9 9 11 15 16 17 19 20 20 21 21 21 19 18 18 19 20 19 19 18 18 19 20 20 21 20 19 18 20 22 22
12 9 8 9 12 14 16 19 22 25 26 25 21 19 18 17 16 16 15 15 15 15 15 14 15 16 15 14 14 13 13 14
15 11 7 6 8 12 18 22 25 27 26 23 20 19 18 17 17 16 14 12 12 12 12 12 12 13 12 13 12 12 12 11
17 12 7 3 6 13 18 22 26 27 25 22 18 15 15 16 16 16 15 14 13 12 12 11 11 12 12 14 14 15 16 17
18 13 7 1 6 12 17 23 26 26 24 20 14 12 13 13 14 15 15 13 13 12 11 11 9 10 11 11 11 12 13 14
18 12 5 1 6 11 16 20 22 24 21 15 12 11 13 13 12 13 13 13 12 11 10 9 9 9 11 11 12 11 12 13
18 12 5 1 5 11 15 18 20 19 15 12 14 12 13 11 11 12 13 14 14 12 7 7 9 11 11 12 12 13 13 13
18 12 6 3 8 13 14 17 18 16 13 13 14 12 11 11 13 15 17 18 17 18 16 12 11 11 12 12 14 16 17 17
16 10 5 4 9 12 13 15 17 16 13 14 16 16 15 14 17 17 20 21 23 23 21 19 17 15 15 17 19 20 19 16
Wind_Direction
158 144 132 136 124 118 126 145 152 128 79 25 14 17 2 360 344 336 325 307 300 294 284 279 266 263 279 287 284 287 300 298
164 150 149 149 136 118 107 122 75 63 35 22 19 9 330 320 314 317 306 305 301 294 294 280 278 265 277 255 301 296 301 302
182 187 164 165 172 169 311 345 179 48 331 320 317 305 315 329 332 318 310 315 323 311 295 299 268 341 279 291 289 302 314 315
191 203 203 210 242 297 330 283 276 341 320 329 326 328 350 343 10 43 46 45 296 344 354 291 12 347 329 304 264 261 305 300
131 99 327 327 317 342 349 346 345 331 328 347 344 27 38 48 72 67 58 36 360 322 314 303 303 309 285 271 274 260 264 270
78 65 47 39 23 358 0 25 24 11 36 33 80 109 248 310 15 131 272 278 292 296 291 291 293 293 286 273 279 277 273 274
64 53 45 37 37 21 7 1 351 341 321 57 142 148 181 203 290 283 291 292 300 300 299 298 297 292 291 277 269 264 264 263
66 63 54 43 33 8 352 340 349 332 27 137 131 141 189 277 299 297 297 295 295 293 292 291 292 291 290 286 282 276 273 265
78 69 65 67 68 67 60 56 65 70 235 237 259 291 307 301 302 299 295 292 291 292 292 294 295 295 293 291 291 291 286 281
93 80 71 59 57 54 48 43 42 40 36 24 351 334 314 310 307 305 300 299 298 296 296 294 294 295 294 295 296 291 283 286
106 90 72 57 51 41 31 23 15 10 8 0 344 324 312 301 301 308 311 310 306 304 305 305 305 301 296 294 295 296 297 292
125 104 81 54 41 25 14 7 2 359 354 349 345 342 336 335 332 329 329 326 324 320 316 316 319 318 321 317 303 293 290 291
145 129 96 62 34 17 11 5 358 356 352 351 351 350 351 349 345 341 338 339 338 339 336 335 339 342 344 344 341 339 328 311
158 154 126 63 28 11 4 359 356 354 353 352 352 355 356 356 356 357 0 360 2 5 4 4 7 2 4 11 13 5 357 343
163 161 148 92 15 359 352 349 349 350 349 349 353 359 6 7 10 10 7 8 9 10 9 11 13 19 25 22 17 10 9 4
170 174 175 101 351 345 341 343 345 344 342 345 350 356 3 7 8 7 1 359 358 3 8 9 16 22 27 20 14 19 14 15
178 179 172 329 340 334 332 337 339 337 342 353 4 1 1 3 1 355 357 355 353 350 352 3 11 15 16 16 15 19 14 18
178 177 183 256 325 328 335 343 343 342 352 2 6 360 0 13 7 1 357 355 349 341 344 355 2 5 7 21 24 24 15 13
177 179 195 275 322 336 348 348 345 346 356 15 4 2 34 33 22 35 38 37 41 44 48 39 28 28 37 34 35 34 33 33
178 185 207 289 326 344 345 350 351 6 41 32 36 61 61 55 45 51 61 56 54 55 52 49 46 47 50 58 50 43 34 25